Home > Weather > Izmir > Past weeks

Flag for Turkey Weather for the Past 2 Weeks in Izmir, Turkey

Now
66 °F

Scattered clouds.


Feels Like: 66 °F
Forecast: 53 / 66 °F
Wind: 15 mph from Southwest

Location: Izmir / Adnan Menderes

Current Time: May 3, 2016 at 10:45:29 AM

Latest Report: May 3, 2016 at 9:50 AM


Visibility: N/A

Pressure: 29.77 "Hg

Humidity: 56%

Dew Point: 50 °F

Location of IzmirLocation

Historic Weather in Izmir — Graph

°F

Izmir Temperature Yesterday

Maximum temperature yesterday: 73 °F (at 1:20 PM)
Minimum temperature yesterday: 55 °F (at 5:50 AM)
Average temperature yesterday: 65 °F

High & Low Weather Summary for the Past Weeks

 TemperatureHumidityPressure
High90 °F (Apr 19, 4:20 PM)94% (Apr 19, 6:50 AM)30.15 "Hg (Apr 19, 6:50 AM)
Low39 °F (Apr 27, 6:20 AM)17% (Apr 20, 12:50 PM)29.56 "Hg (Apr 24, 7:50 PM)
Average65 °F56%29.89 "Hg
* Reported Apr 18 9:20 AM — May 3 9:20 AM, Izmir, Weather by CustomWeather, © 2016

Note: Actual official high and low records may vary slightly from our data, if they occured in-between our weather recording intervals... More about our weather records

Advertising

Izmir Weather History for the Previous 24 Hours

Scroll right to see more
 ConditionsComfort  
Time TempWeatherWind HumidityBarometerVisibility
9:20 AM
Tue, May 3
64 °FScattered clouds.13 mph60%29.77 "HgN/A
8:50 AM64 °FScattered clouds.7 mph64%29.77 "HgN/A
8:20 AM63 °FScattered clouds.9 mph68%29.77 "HgN/A
7:50 AM63 °FBroken clouds.12 mph68%29.77 "HgN/A
7:20 AM63 °FBroken clouds.8 mph73%29.77 "HgN/A
6:50 AM63 °FPartly cloudy.10 mph73%29.74 "HgN/A
6:20 AM63 °FPartly cloudy.10 mph77%29.74 "HgN/A
5:50 AM61 °FPartly cloudy.6 mph88%29.77 "HgN/A
5:20 AM61 °FPartly cloudy.5 mph88%29.74 "HgN/A
4:20 AM63 °FPartly cloudy.7 mph83%29.77 "HgN/A
3:50 AM63 °FPartly cloudy.5 mph77%29.77 "HgN/A
3:20 AM63 °FThundershowers. Partly cloudy.6 mph73%29.77 "HgN/A
2:50 AM64 °FPartly cloudy.6 mph68%29.77 "HgN/A
2:20 AM63 °FPartly cloudy.5 mph77%29.77 "HgN/A
1:50 AM63 °FPartly cloudy.3 mph77%29.77 "HgN/A
12:50 AM61 °FPartly cloudy.5 mph83%29.77 "HgN/A
12:20 AM61 °FPartly cloudy.5 mph83%29.77 "HgN/A
11:50 PM
Mon, May 2
63 °FPartly cloudy.2 mph77%29.77 "HgN/A
11:20 PM63 °FPartly cloudy.6 mph73%29.77 "HgN/A
10:50 PM63 °FPartly cloudy.5 mph73%29.80 "HgN/A
10:20 PM63 °FPartly cloudy.3 mph73%29.80 "HgN/A
9:50 PM64 °FPartly cloudy.6 mph68%29.80 "HgN/A
9:20 PM64 °FPartly cloudy.No wind68%29.80 "HgN/A
8:50 PM64 °FBroken clouds.3 mph64%29.80 "HgN/A
8:20 PM64 °FBroken clouds.2 mph64%29.80 "HgN/A
7:50 PM64 °FBroken clouds.5 mph64%29.80 "HgN/A
7:20 PM64 °FBroken clouds.5 mph64%29.80 "HgN/A
6:50 PM64 °FBroken clouds.7 mph64%29.80 "HgN/A
6:20 PM66 °FBroken clouds.10 mph60%29.83 "HgN/A
6:01 PM66 °FBroken clouds.8 mph64%29.83 "HgN/A
5:20 PM70 °FBroken clouds.10 mph50%29.83 "HgN/A
4:50 PM70 °FBroken clouds.10 mph53%29.83 "HgN/A
4:20 PM70 °FBroken clouds.12 mph60%29.83 "HgN/A
3:50 PM72 °FBroken clouds.10 mph57%29.86 "HgN/A
3:20 PM72 °FBroken clouds.9 mph50%29.86 "HgN/A
2:50 PM73 °FBroken clouds.5 mph44%29.86 "HgN/A
2:20 PM73 °FPartly sunny.7 mph44%29.86 "HgN/A
1:50 PM73 °FPartly sunny.8 mph44%29.86 "HgN/A
1:20 PM73 °FPartly sunny.6 mph50%29.86 "HgN/A
12:50 PM70 °FPartly sunny.8 mph60%29.86 "HgN/A
12:20 PM70 °FPartly sunny.7 mph60%29.89 "HgN/A
11:50 AM72 °FPartly sunny.3 mph50%29.89 "HgN/A
11:20 AM70 °FPartly sunny.5 mph53%29.89 "HgN/A
10:50 AM68 °FPassing clouds.3 mph53%29.89 "HgN/A
10:20 AM66 °FSunny.1 mph60%29.86 "Hg10 mi
Weather by CustomWeather, © 2016

See weather overviewHow to use our weather pages